| time (UTC) | temp C | wind direction | speed KPH | gust KPH | rain 1hr cm | rain 24hr cm | rain mn cm | humidity % | barometer mb |
| 20260903080806 | 26 | 188 | 4.8 | 9.7 | 0.00 | 0.00 | 0.00 | 78 | 1011.7 |
| 20260903080304 | 26 | 213 | 4.8 | 9.7 | 0.00 | 0.00 | 0.00 | 77 | 1011.6 |
| 20260903075802 | 26 | 220 | 4.8 | 8.0 | 0.00 | 0.00 | 0.00 | 77 | 1011.7 |
| 20260903075257 | 26 | 196 | 8.0 | 11.3 | 0.00 | 0.00 | 0.00 | 77 | 1011.8 |
| 20260903074756 | 27 | 218 | 8.0 | 12.9 | 0.00 | 0.00 | 0.00 | 76 | 1011.8 |
| 20260903074252 | 27 | 218 | 6.4 | 11.3 | 0.00 | 0.00 | 0.00 | 77 | 1011.9 |
| 20260903073742 | 27 | 208 | 8.0 | 12.9 | 0.00 | 0.00 | 0.00 | 76 | 1011.7 |
| 20260903073237 | 27 | 210 | 9.7 | 11.3 | 0.00 | 0.00 | 0.00 | 76 | 1011.9 |
| 20260903072733 | 27 | 247 | 6.4 | 9.7 | 0.00 | 0.00 | 0.00 | 76 | 1011.9 |
| 20260903072229 | 27 | 230 | 6.4 | 12.9 | 0.00 | 0.00 | 0.00 | 76 | 1011.8 |
| 20260903071725 | 27 | 209 | 4.8 | 9.7 | 0.00 | 0.00 | 0.00 | 76 | 1011.9 |
| 20260903071215 | 27 | 214 | 6.4 | 9.7 | 0.00 | 0.00 | 0.00 | 76 | 1011.8 |
| 20260903070715 | 27 | 185 | 4.8 | 16.1 | 0.00 | 0.00 | 0.00 | 76 | 1011.8 |
| 20260903070210 | 27 | 210 | 8.0 | 11.3 | 0.00 | 0.00 | 0.00 | 76 | 1011.9 |
| 20260903065705 | 27 | 224 | 9.7 | 14.5 | 0.00 | 0.00 | 0.00 | 75 | 1011.9 |
| 20260903065159 | 27 | 201 | 9.7 | 14.5 | 0.00 | 0.00 | 0.00 | 76 | 1011.7 |
| 20260903064658 | 27 | 205 | 8.0 | 12.9 | 0.00 | 0.00 | 0.00 | 76 | 1011.8 |
| 20260903064153 | 27 | 174 | 8.0 | 11.3 | 0.00 | 0.00 | 0.00 | 76 | 1012.1 |
| 20260903063643 | 27 | 205 | 9.7 | 11.3 | 0.00 | 0.00 | 0.00 | 76 | 1012.0 |
| 20260903063138 | 27 | 209 | 6.4 | 11.3 | 0.00 | 0.00 | 0.00 | 76 | 1012.0 |
| 20260903062634 | 27 | 191 | 8.0 | 9.7 | 0.00 | 0.00 | 0.00 | 76 | 1012.0 |
| 20260903062129 | 27 | 213 | 6.4 | 9.7 | 0.00 | 0.00 | 0.00 | 76 | 1011.9 |
| 20260903061624 | 27 | 237 | 6.4 | 11.3 | 0.00 | 0.00 | 0.00 | 76 | 1012.0 |
| 20260903061123 | 26 | 213 | 6.4 | 8.0 | 0.00 | 0.00 | 0.00 | 77 | 1012.0 |
| 20260903060618 | 27 | 164 | 6.4 | 9.7 | 0.00 | 0.00 | 0.00 | 77 | 1012.1 |
| 20260903060114 | 27 | 213 | 8.0 | 9.7 | 0.00 | 0.00 | 0.00 | 77 | 1011.9 |
| 20260903055611 | 26 | 202 | 6.4 | 9.7 | 0.00 | 0.00 | 0.00 | 77 | 1011.9 |
| 20260903055109 | 26 | 188 | 6.4 | 9.7 | 0.00 | 0.00 | 0.00 | 78 | 1011.8 |
| 20260903054604 | 26 | 230 | 4.8 | 9.7 | 0.00 | 0.00 | 0.00 | 78 | 1012.1 |
| 20260903054101 | 26 | 204 | 4.8 | 8.0 | 0.00 | 0.00 | 0.00 | 79 | 1012.1 |
| 20260903053556 | 26 | 235 | 4.8 | 8.0 | 0.00 | 0.00 | 0.00 | 79 | 1012.0 |
| 20260903053052 | 26 | 191 | 4.8 | 8.0 | 0.00 | 0.00 | 0.00 | 79 | 1012.0 |
| 20260903052548 | 26 | 231 | 4.8 | 4.8 | 0.00 | 0.00 | 0.00 | 79 | 1012.2 |
| 20260903052043 | 26 | 257 | 3.2 | 4.8 | 0.00 | 0.00 | 0.00 | 79 | 1012.1 |
| 20260903051542 | 26 | 247 | 4.8 | 4.8 | 0.00 | 0.00 | 0.00 | 79 | 1012.3 |
| 20260903051038 | 26 | 209 | 3.2 | 4.8 | 0.00 | 0.00 | 0.00 | 79 | 1012.2 |
| 20260903050537 | 27 | 195 | 4.8 | 8.0 | 0.00 | 0.00 | 0.00 | 78 | 1012.1 |
| 20260903050033 | 27 | 212 | 6.4 | 8.0 | 0.00 | 0.00 | 0.00 | 78 | 1012.2 |
| 20260903045532 | 27 | 233 | 6.4 | 8.0 | 0.00 | 0.00 | 0.00 | 78 | 1012.1 |
| 20260903045029 | 27 | 175 | 4.8 | 9.7 | 0.00 | 0.00 | 0.00 | 77 | 1012.1 |
| 20260903044525 | 27 | 211 | 4.8 | 9.7 | 0.00 | 0.00 | 0.00 | 77 | 1012.1 |
| 20260903044020 | 27 | 211 | 4.8 | 8.0 | 0.00 | 0.00 | 0.00 | 77 | 1012.3 |
| 20260903043516 | 27 | 229 | 4.8 | 8.0 | 0.00 | 0.00 | 0.00 | 77 | 1012.1 |
| 20260903043015 | 27 | 211 | 6.4 | 9.7 | 0.00 | 0.00 | 0.00 | 77 | 1012.3 |
| 20260903042510 | 27 | 191 | 4.8 | 9.7 | 0.00 | 0.00 | 0.00 | 77 | 1012.1 |
| 20260903042006 | 27 | 206 | 6.4 | 9.7 | 0.00 | 0.00 | 0.00 | 77 | 1012.2 |
| 20260903041502 | 27 | 204 | 4.8 | 8.0 | 0.00 | 0.00 | 0.00 | 78 | 1012.3 |
| 20260903040957 | 27 | 213 | 4.8 | 8.0 | 0.00 | 0.00 | 0.00 | 77 | 1012.0 |
| 20260903040456 | 27 | 219 | 4.8 | 8.0 | 0.00 | 0.00 | 0.00 | 77 | 1012.1 |
| 20260903035953 | 27 | 217 | 4.8 | 9.7 | 0.00 | 0.00 | 0.00 | 77 | 1012.4 |
| 20260903035442 | 27 | 216 | 4.8 | 9.7 | 0.00 | 0.00 | 0.00 | 77 | 1012.0 |
| 20260903034937 | 27 | 224 | 6.4 | 8.0 | 0.00 | 0.00 | 0.00 | 77 | 1012.0 |
| 20260903034432 | 27 | 238 | 4.8 | 8.0 | 0.00 | 0.00 | 0.00 | 78 | 1012.3 |
| 20260903033927 | 27 | 220 | 4.8 | 4.8 | 0.00 | 0.00 | 0.00 | 77 | 1012.2 |
| 20260903033422 | 27 | 233 | 4.8 | 8.0 | 0.00 | 0.00 | 0.00 | 77 | 1012.2 |
| 20260903032917 | 27 | 211 | 4.8 | 8.0 | 0.00 | 0.00 | 0.00 | 78 | 1012.1 |
| 20260903032413 | 27 | 261 | 1.6 | 3.2 | 0.00 | 0.00 | 0.00 | 78 | 1012.3 |
| 20260903031913 | 27 | 229 | 1.6 | 4.8 | 0.00 | 0.00 | 0.00 | 77 | 1012.0 |
| 20260903031413 | 27 | 221 | 4.8 | 4.8 | 0.00 | 0.00 | 0.00 | 76 | 1012.2 |
| 20260903030903 | 27 | 187 | 4.8 | 4.8 | 0.00 | 0.00 | 0.00 | 75 | 1012.1 |
| 20260903030359 | 27 | 229 | 3.2 | 9.7 | 0.00 | 0.00 | 0.00 | 76 | 1012.0 |
| 20260903025855 | 27 | 242 | 3.2 | 3.2 | 0.00 | 0.00 | 0.00 | 76 | 1012.0 |
| 20260903025350 | 27 | 263 | 3.2 | 3.2 | 0.00 | 0.00 | 0.00 | 75 | 1012.2 |
| 20260903024849 | 27 | 232 | 3.2 | 4.8 | 0.00 | 0.00 | 0.00 | 75 | 1012.3 |
| 20260903024343 | 28 | 212 | 3.2 | 4.8 | 0.00 | 0.00 | 0.00 | 75 | 1012.0 |
| 20260903023839 | 28 | 225 | 4.8 | 4.8 | 0.00 | 0.00 | 0.00 | 74 | 1012.0 |
| 20260903023334 | 28 | 211 | 4.8 | 8.0 | 0.00 | 0.00 | 0.00 | 74 | 1012.1 |
| 20260903022829 | 28 | 227 | 4.8 | 8.0 | 0.00 | 0.00 | 0.00 | 74 | 1011.9 |
| 20260903022329 | 28 | 204 | 4.8 | 8.0 | 0.00 | 0.00 | 0.00 | 74 | 1012.0 |
| 20260903021823 | 28 | 225 | 3.2 | 4.8 | 0.00 | 0.00 | 0.00 | 74 | 1012.0 |
| 20260903021319 | 28 | 206 | 4.8 | 4.8 | 0.00 | 0.00 | 0.00 | 73 | 1012.0 |
| 20260903020818 | 28 | 232 | 3.2 | 4.8 | 0.00 | 0.00 | 0.00 | 73 | 1012.1 |
| 20260903020313 | 28 | 173 | 4.8 | 8.0 | 0.00 | 0.00 | 0.00 | 73 | 1011.9 |
| 20260903015809 | 28 | 223 | 3.2 | 4.8 | 0.00 | 0.00 | 0.00 | 74 | 1012.1 |
| 20260903015309 | 28 | 210 | 4.8 | 4.8 | 0.00 | 0.00 | 0.00 | 73 | 1012.0 |
| 20260903014804 | 28 | 198 | 4.8 | 8.0 | 0.00 | 0.00 | 0.00 | 73 | 1011.8 |
| 20260903014304 | 28 | 218 | 4.8 | 8.0 | 0.00 | 0.00 | 0.00 | 74 | 1011.9 |
| 20260903013759 | 29 | 200 | 3.2 | 8.0 | 0.00 | 0.00 | 0.00 | 74 | 1011.8 |
| 20260903013258 | 29 | 210 | 4.8 | 4.8 | 0.00 | 0.00 | 0.00 | 73 | 1011.7 |
| 20260903012757 | 29 | 253 | 3.2 | 4.8 | 0.00 | 0.00 | 0.00 | 73 | 1011.6 |
| 20260903012251 | 30 | 181 | 4.8 | 8.0 | 0.00 | 0.00 | 0.00 | 73 | 1011.8 |
| 20260903011746 | 30 | 190 | 4.8 | 9.7 | 0.00 | 0.00 | 0.00 | 73 | 1011.6 |
| 20260903011245 | 30 | 191 | 6.4 | 9.7 | 0.00 | 0.00 | 0.00 | 73 | 1011.5 |
| 20260903010741 | 30 | 196 | 6.4 | 9.7 | 0.00 | 0.00 | 0.00 | 74 | 1011.6 |
| 20260903010236 | 30 | 165 | 6.4 | 8.0 | 0.00 | 0.00 | 0.00 | 73 | 1011.7 |
| 20260903005734 | 30 | 196 | 6.4 | 8.0 | 0.00 | 0.00 | 0.00 | 73 | 1011.5 |
| 20260903005229 | 30 | 189 | 3.2 | 4.8 | 0.00 | 0.00 | 0.00 | 73 | 1011.4 |
| 20260903004725 | 30 | 176 | 4.8 | 11.3 | 0.00 | 0.00 | 0.00 | 72 | 1011.7 |
| 20260903004221 | 30 | 178 | 3.2 | 4.8 | 0.00 | 0.00 | 0.00 | 74 | 1011.7 |
| 20260903003715 | 30 | 236 | 3.2 | 3.2 | 0.00 | 0.00 | 0.00 | 73 | 1011.4 |
| 20260903003211 | 31 | 185 | 3.2 | 4.8 | 0.00 | 0.00 | 0.00 | 72 | 1011.6 |
| 20260903002705 | 31 | 177 | 4.8 | 8.0 | 0.00 | 0.00 | 0.00 | 70 | 1011.5 |
| 20260903002159 | 31 | 214 | 4.8 | 8.0 | 0.00 | 0.00 | 0.00 | 70 | 1011.5 |
| 20260903001655 | 31 | 205 | 3.2 | 8.0 | 0.00 | 0.00 | 0.00 | 70 | 1011.5 |
| 20260903001148 | 31 | 203 | 3.2 | 8.0 | 0.00 | 0.00 | 0.00 | 70 | 1011.5 |
| 20260903000644 | 32 | 191 | 4.8 | 4.8 | 0.00 | 0.00 | 0.00 | 69 | 1011.4 |
| 20260903000138 | 32 | 198 | 4.8 | 9.7 | 0.00 | 0.00 | 0.00 | 68 | 1011.4 |
| 20260902235636 | 32 | 201 | 4.8 | 8.0 | 0.00 | 0.00 | 0.00 | 67 | 1011.4 |
| 20260902235126 | 32 | 191 | 4.8 | 4.8 | 0.00 | 0.00 | 0.00 | 66 | 1011.6 |
| 20260902234620 | 32 | 190 | 3.2 | 4.8 | 0.00 | 0.00 | 0.00 | 65 | 1011.7 |
| 20260902234118 | 33 | 189 | 4.8 | 8.0 | 0.00 | 0.00 | 0.00 | 63 | 1011.5 |
| 20260902233614 | 33 | 177 | 4.8 | 4.8 | 0.00 | 0.00 | 0.00 | 64 | 1011.8 |
| 20260902233108 | 33 | 204 | 4.8 | 8.0 | 0.00 | 0.00 | 0.00 | 64 | 1011.7 |
| 20260902232607 | 33 | 199 | 4.8 | 8.0 | 0.00 | 0.00 | 0.00 | 62 | 1011.7 |
| 20260902232101 | 33 | 197 | 4.8 | 8.0 | 0.00 | 0.00 | 0.00 | 63 | 1011.8 |
| 20260902231556 | 33 | 183 | 4.8 | 8.0 | 0.00 | 0.00 | 0.00 | 63 | 1011.6 |
| 20260902231050 | 34 | 256 | 1.6 | 3.2 | 0.00 | 0.00 | 0.00 | 62 | 1011.4 |
| 20260902230545 | 35 | 238 | 3.2 | 4.8 | 0.00 | 0.00 | 0.00 | 59 | 1011.7 |
| 20260902230044 | 35 | 250 | 1.6 | 4.8 | 0.00 | 0.00 | 0.00 | 60 | 1011.7 |
| 20260902225539 | 34 | 221 | 4.8 | 8.0 | 0.00 | 0.00 | 0.00 | 58 | 1011.6 |
| 20260902225039 | 35 | 184 | 6.4 | 9.7 | 0.00 | 0.00 | 0.00 | 57 | 1011.7 |
| 20260902224538 | 35 | 209 | 4.8 | 9.7 | 0.00 | 0.00 | 0.00 | 58 | 1011.7 |
| 20260902224034 | 35 | 219 | 6.4 | 8.0 | 0.00 | 0.00 | 0.00 | 57 | 1011.6 |
| 20260902223530 | 35 | 216 | 4.8 | 9.7 | 0.00 | 0.00 | 0.00 | 57 | 1011.7 |
| 20260902223029 | 35 | 210 | 6.4 | 11.3 | 0.00 | 0.00 | 0.00 | 56 | 1011.7 |
| 20260902222528 | 35 | 175 | 9.7 | 12.9 | 0.00 | 0.00 | 0.00 | 55 | 1011.7 |
| 20260902222026 | 35 | 232 | 8.0 | 12.9 | 0.00 | 0.00 | 0.00 | 54 | 1011.9 |
| 20260902221521 | 35 | 268 | 3.2 | 9.7 | 0.00 | 0.00 | 0.00 | 56 | 1012.0 |
| 20260902221016 | 35 | 225 | 8.0 | 11.3 | 0.00 | 0.00 | 0.00 | 55 | 1011.6 |
| 20260902220511 | 35 | 211 | 6.4 | 11.3 | 0.00 | 0.00 | 0.00 | 54 | 1011.7 |
| 20260902220006 | 35 | 199 | 8.0 | 9.7 | 0.00 | 0.00 | 0.00 | 55 | 1011.9 |
| 20260902215502 | 35 | 223 | 4.8 | 9.7 | 0.00 | 0.00 | 0.00 | 54 | 1011.8 |
| 20260902214958 | 35 | 189 | 8.0 | 12.9 | 0.00 | 0.00 | 0.00 | 52 | 1012.0 |
| 20260902214457 | 35 | 218 | 8.0 | 14.5 | 0.00 | 0.00 | 0.00 | 53 | 1011.8 |
| 20260902213955 | 35 | 219 | 8.0 | 12.9 | 0.00 | 0.00 | 0.00 | 54 | 1012.0 |
| 20260902213452 | 35 | 195 | 4.8 | 12.9 | 0.00 | 0.00 | 0.00 | 54 | 1012.0 |
| 20260902212951 | 35 | 243 | 6.4 | 11.3 | 0.00 | 0.00 | 0.00 | 52 | 1011.9 |
| 20260902212447 | 35 | 237 | 12.9 | 20.9 | 0.00 | 0.00 | 0.00 | 51 | 1012.0 |
| 20260902211943 | 35 | 223 | 6.4 | 16.1 | 0.00 | 0.00 | 0.00 | 52 | 1012.0 |
| 20260902211439 | 35 | 219 | 14.5 | 25.7 | 0.00 | 0.00 | 0.00 | 51 | 1011.9 |
| 20260902210933 | 35 | 242 | 8.0 | 12.9 | 0.00 | 0.00 | 0.00 | 54 | 1012.1 |
| 20260902210428 | 35 | 265 | 6.4 | 12.9 | 0.00 | 0.00 | 0.00 | 53 | 1012.1 |
| 20260902205926 | 35 | 229 | 9.7 | 12.9 | 0.00 | 0.00 | 0.00 | 51 | 1012.0 |
| 20260902205416 | 35 | 241 | 8.0 | 12.9 | 0.00 | 0.00 | 0.00 | 54 | 1012.1 |
| 20260902204912 | 35 | 194 | 9.7 | 17.7 | 0.00 | 0.00 | 0.00 | 52 | 1011.9 |
| 20260902204411 | 35 | 225 | 11.3 | 12.9 | 0.00 | 0.00 | 0.00 | 54 | 1012.0 |
| 20260902203907 | 35 | 230 | 11.3 | 16.1 | 0.00 | 0.00 | 0.00 | 54 | 1012.1 |
| 20260902203402 | 35 | 206 | 8.0 | 14.5 | 0.00 | 0.00 | 0.00 | 54 | 1012.1 |
| 20260902202856 | 35 | 149 | 11.3 | 17.7 | 0.00 | 0.00 | 0.00 | 54 | 1012.2 |
| 20260902202352 | 35 | 196 | 8.0 | 12.9 | 0.00 | 0.00 | 0.00 | 55 | 1012.2 |
| 20260902201849 | 35 | 206 | 8.0 | 11.3 | 0.00 | 0.00 | 0.00 | 55 | 1012.2 |
| 20260902201348 | 36 | 214 | 8.0 | 9.7 | 0.00 | 0.00 | 0.00 | 54 | 1012.5 |
| 20260902200843 | 36 | 212 | 11.3 | 12.9 | 0.00 | 0.00 | 0.00 | 53 | 1012.4 |
| 20260902200339 | 36 | 197 | 9.7 | 16.1 | 0.00 | 0.00 | 0.00 | 54 | 1012.7 |
| 20260902195834 | 35 | 205 | 8.0 | 14.5 | 0.00 | 0.00 | 0.00 | 54 | 1012.7 |
| 20260902195333 | 35 | 199 | 11.3 | 14.5 | 0.00 | 0.00 | 0.00 | 54 | 1012.5 |
| 20260902194828 | 35 | 194 | 9.7 | 17.7 | 0.00 | 0.00 | 0.00 | 54 | 1012.7 |
| 20260902194327 | 35 | 220 | 11.3 | 16.1 | 0.00 | 0.00 | 0.00 | 56 | 1012.6 |
| 20260902193823 | 35 | 200 | 12.9 | 20.9 | 0.00 | 0.00 | 0.00 | 55 | 1012.8 |
| 20260902193319 | 35 | 210 | 9.7 | 16.1 | 0.00 | 0.00 | 0.00 | 55 | 1012.8 |
| 20260902192818 | 35 | 218 | 11.3 | 17.7 | 0.00 | 0.00 | 0.00 | 54 | 1012.9 |
| 20260902192316 | 35 | 207 | 14.5 | 17.7 | 0.00 | 0.00 | 0.00 | 54 | 1012.8 |
| 20260902191816 | 35 | 230 | 9.7 | 16.1 | 0.00 | 0.00 | 0.00 | 54 | 1012.9 |
| 20260902191312 | 35 | 208 | 14.5 | 20.9 | 0.00 | 0.00 | 0.00 | 54 | 1012.8 |
| 20260902190807 | 35 | 234 | 6.4 | 14.5 | 0.00 | 0.00 | 0.00 | 56 | 1013.0 |
| 20260902190306 | 35 | 223 | 6.4 | 11.3 | 0.00 | 0.00 | 0.00 | 54 | 1013.1 |
| 20260902185803 | 35 | 228 | 8.0 | 20.9 | 0.00 | 0.00 | 0.00 | 55 | 1013.1 |
| 20260902185258 | 35 | 204 | 6.4 | 9.7 | 0.00 | 0.00 | 0.00 | 55 | 1013.2 |
| 20260902184754 | 34 | 209 | 8.0 | 14.5 | 0.00 | 0.00 | 0.00 | 58 | 1013.2 |
| 20260902184249 | 34 | 228 | 3.2 | 12.9 | 0.00 | 0.00 | 0.00 | 59 | 1013.1 |
| 20260902183744 | 34 | 212 | 11.3 | 14.5 | 0.00 | 0.00 | 0.00 | 59 | 1013.4 |
| 20260902183240 | 34 | 182 | 11.3 | 12.9 | 0.00 | 0.00 | 0.00 | 57 | 1013.6 |
| 20260902182736 | 33 | 294 | 6.4 | 11.3 | 0.00 | 0.00 | 0.00 | 59 | 1013.4 |
| 20260902182233 | 33 | 219 | 11.3 | 20.9 | 0.00 | 0.00 | 0.00 | 59 | 1013.5 |
| 20260902181729 | 33 | 239 | 9.7 | 17.7 | 0.00 | 0.00 | 0.00 | 58 | 1013.6 |
| 20260902181228 | 33 | 219 | 12.9 | 17.7 | 0.00 | 0.00 | 0.00 | 60 | 1013.7 |
| 20260902180723 | 33 | 229 | 6.4 | 11.3 | 0.00 | 0.00 | 0.00 | 59 | 1013.6 |
| 20260902180219 | 33 | 186 | 9.7 | 12.9 | 0.00 | 0.00 | 0.00 | 59 | 1013.5 |
| 20260902175713 | 33 | 257 | 6.4 | 16.1 | 0.00 | 0.00 | 0.00 | 60 | 1013.5 |
| 20260902175209 | 33 | 214 | 8.0 | 12.9 | 0.00 | 0.00 | 0.00 | 58 | 1013.5 |
| 20260902174705 | 32 | 238 | 8.0 | 16.1 | 0.00 | 0.00 | 0.00 | 59 | 1013.9 |
| 20260902174201 | 33 | 195 | 4.8 | 12.9 | 0.00 | 0.00 | 0.00 | 60 | 1013.9 |
| 20260902173656 | 33 | 207 | 4.8 | 9.7 | 0.00 | 0.00 | 0.00 | 58 | 1013.9 |
| 20260902173151 | 33 | 249 | 8.0 | 9.7 | 0.00 | 0.00 | 0.00 | 59 | 1013.9 |
| 20260902172646 | 32 | 212 | 6.4 | 14.5 | 0.00 | 0.00 | 0.00 | 62 | 1014.1 |
| 20260902172144 | 32 | 171 | 4.8 | 9.7 | 0.00 | 0.00 | 0.00 | 61 | 1013.9 |
| 20260902171640 | 32 | 167 | 11.3 | 20.9 | 0.00 | 0.00 | 0.00 | 61 | 1014.1 |
| 20260902171136 | 32 | 215 | 8.0 | 14.5 | 0.00 | 0.00 | 0.00 | 60 | 1014.2 |
| 20260902170631 | 32 | 230 | 12.9 | 17.7 | 0.00 | 0.00 | 0.00 | 60 | 1014.2 |
| 20260902170127 | 32 | 226 | 4.8 | 11.3 | 0.00 | 0.00 | 0.00 | 60 | 1014.2 |
| 20260902165627 | 32 | 223 | 8.0 | 12.9 | 0.00 | 0.00 | 0.00 | 60 | 1014.5 |
| 20260902165121 | 32 | 219 | 6.4 | 12.9 | 0.00 | 0.00 | 0.00 | 61 | 1014.5 |
| 20260902164616 | 32 | 212 | 8.0 | 11.3 | 0.00 | 0.00 | 0.00 | 61 | 1014.6 |
| 20260902164115 | 31 | 215 | 8.0 | 12.9 | 0.00 | 0.00 | 0.00 | 63 | 1014.3 |
| 20260902163611 | 31 | 218 | 6.4 | 9.7 | 0.00 | 0.00 | 0.00 | 62 | 1014.5 |
| 20260902163109 | 31 | 237 | 8.0 | 17.7 | 0.00 | 0.00 | 0.00 | 61 | 1014.5 |
| 20260902162609 | 31 | 185 | 4.8 | 14.5 | 0.00 | 0.00 | 0.00 | 63 | 1014.5 |
| 20260902162109 | 31 | 166 | 9.7 | 12.9 | 0.00 | 0.00 | 0.00 | 63 | 1014.6 |
| 20260902161604 | 31 | 179 | 8.0 | 16.1 | 0.00 | 0.00 | 0.00 | 63 | 1014.4 |
| 20260902161100 | 31 | 249 | 4.8 | 11.3 | 0.00 | 0.00 | 0.00 | 65 | 1014.3 |
| 20260902160555 | 31 | 198 | 9.7 | 12.9 | 0.00 | 0.00 | 0.00 | 63 | 1014.3 |
| 20260902160051 | 30 | 162 | 8.0 | 11.3 | 0.00 | 0.00 | 0.00 | 64 | 1014.6 |
| 20260902155544 | 31 | 212 | 6.4 | 11.3 | 0.00 | 0.00 | 0.00 | 65 | 1014.5 |
| 20260902155042 | 30 | 248 | 1.6 | 11.3 | 0.00 | 0.00 | 0.00 | 65 | 1014.4 |
| 20260902154538 | 31 | 215 | 6.4 | 9.7 | 0.00 | 0.00 | 0.00 | 65 | 1014.4 |
| 20260902154032 | 30 | 206 | 4.8 | 9.7 | 0.00 | 0.00 | 0.00 | 66 | 1014.5 |
| 20260902153531 | 30 | 144 | 6.4 | 9.7 | 0.00 | 0.00 | 0.00 | 67 | 1014.7 |
| 20260902153027 | 30 | 202 | 6.4 | 9.7 | 0.00 | 0.00 | 0.00 | 68 | 1014.6 |
| 20260902152523 | 30 | 162 | 6.4 | 11.3 | 0.00 | 0.00 | 0.00 | 68 | 1014.5 |
| 20260902152018 | 30 | 187 | 4.8 | 4.8 | 0.00 | 0.00 | 0.00 | 68 | 1014.7 |
| 20260902151514 | 30 | 167 | 4.8 | 11.3 | 0.00 | 0.00 | 0.00 | 70 | 1014.5 |
| 20260902151013 | 29 | 195 | 4.8 | 8.0 | 0.00 | 0.00 | 0.00 | 70 | 1014.4 |
| 20260902150510 | 29 | 147 | 4.8 | 8.0 | 0.00 | 0.00 | 0.00 | 71 | 1014.5 |
| 20260902150009 | 28 | 198 | 4.8 | 9.7 | 0.00 | 0.00 | 0.00 | 72 | 1014.4 |
| 20260902145504 | 28 | 159 | 4.8 | 11.3 | 0.00 | 0.00 | 0.00 | 73 | 1014.4 |
| 20260902144959 | 28 | 215 | 4.8 | 9.7 | 0.00 | 0.00 | 0.00 | 73 | 1014.5 |
| 20260902144456 | 28 | 190 | 4.8 | 4.8 | 0.00 | 0.00 | 0.00 | 74 | 1014.4 |
| 20260902143956 | 28 | 166 | 8.0 | 11.3 | 0.00 | 0.00 | 0.00 | 75 | 1014.5 |
| 20260902143451 | 27 | 172 | 6.4 | 11.3 | 0.00 | 0.00 | 0.00 | 75 | 1014.3 |
| 20260902142946 | 27 | 177 | 6.4 | 9.7 | 0.00 | 0.00 | 0.00 | 75 | 1014.4 |
| 20260902142443 | 27 | 203 | 6.4 | 9.7 | 0.00 | 0.00 | 0.00 | 76 | 1014.5 |
| 20260902141937 | 27 | 275 | 1.6 | 11.3 | 0.00 | 0.00 | 0.00 | 77 | 1014.7 |
| 20260902141433 | 27 | 152 | 9.7 | 12.9 | 0.00 | 0.00 | 0.00 | 77 | 1014.5 |
| 20260902140932 | 27 | 150 | 3.2 | 9.7 | 0.00 | 0.00 | 0.00 | 78 | 1014.7 |
| 20260902140428 | 27 | 227 | 3.2 | 8.0 | 0.00 | 0.00 | 0.00 | 78 | 1014.5 |
| 20260902135927 | 26 | 154 | 6.4 | 11.3 | 0.00 | 0.00 | 0.00 | 80 | 1014.6 |
| 20260902135423 | 26 | 194 | 4.8 | 9.7 | 0.00 | 0.00 | 0.00 | 80 | 1014.5 |
| 20260902134922 | 26 | 178 | 8.0 | 9.7 | 0.00 | 0.00 | 0.00 | 79 | 1014.5 |
| 20260902134418 | 26 | 218 | 3.2 | 9.7 | 0.00 | 0.00 | 0.00 | 79 | 1014.5 |
| 20260902133913 | 25 | 259 | 1.6 | 4.8 | 0.00 | 0.00 | 0.00 | 80 | 1014.6 |
| 20260902133412 | 25 | 211 | 3.2 | 8.0 | 0.00 | 0.00 | 0.00 | 80 | 1014.6 |
| 20260902132907 | 25 | 177 | 4.8 | 9.7 | 0.00 | 0.00 | 0.00 | 81 | 1014.8 |
| 20260902132402 | 25 | 181 | 4.8 | 8.0 | 0.00 | 0.00 | 0.00 | 82 | 1014.6 |
| 20260902131857 | 25 | 182 | 4.8 | 8.0 | 0.00 | 0.00 | 0.00 | 82 | 1014.6 |
| 20260902131355 | 25 | 256 | 1.6 | 1.6 | 0.00 | 0.00 | 0.00 | 79 | 1014.7 |
| 20260902130853 | 25 | 273 | 0.0 | 3.2 | 0.00 | 0.00 | 0.00 | 81 | 1014.8 |
| 20260902130350 | 25 | 174 | 8.0 | 8.0 | 0.00 | 0.00 | 0.00 | 83 | 1014.9 |
| 20260902125844 | 23 | 180 | 4.8 | 8.0 | 0.00 | 0.00 | 0.00 | 85 | 1014.8 |
| 20260902125341 | 23 | 204 | 3.2 | 3.2 | 0.00 | 0.00 | 0.00 | 85 | 1015.0 |
| 20260902124836 | 23 | 194 | 3.2 | 4.8 | 0.00 | 0.00 | 0.00 | 84 | 1015.0 |
| 20260902124332 | 23 | 259 | 1.6 | 3.2 | 0.00 | 0.00 | 0.00 | 85 | 1015.1 |
| 20260902123827 | 23 | 281 | 0.0 | 0.0 | 0.00 | 0.00 | 0.00 | 86 | 1015.2 |
| 20260902123323 | 23 | 281 | 0.0 | 1.6 | 0.00 | 0.00 | 0.00 | 87 | 1015.0 |
| 20260902122822 | 22 | 258 | 1.6 | 4.8 | 0.00 | 0.00 | 0.00 | 88 | 1014.8 |
| 20260902122318 | 22 | 198 | 3.2 | 3.2 | 0.00 | 0.00 | 0.00 | 89 | 1015.0 |
| 20260902121817 | 22 | 244 | 3.2 | 3.2 | 0.00 | 0.00 | 0.00 | 90 | 1015.0 |
| 20260902121313 | 22 | 319 | 0.0 | 0.0 | 0.00 | 0.00 | 0.00 | 90 | 1014.9 |
| 20260902120808 | 22 | 333 | 4.8 | 4.8 | 0.00 | 0.00 | 0.00 | 89 | 1015.2 |
| 20260902120305 | 22 | 246 | 1.6 | 4.8 | 0.00 | 0.00 | 0.00 | 87 | 1014.8 |
| 20260902115759 | 22 | 270 | 1.6 | 3.2 | 0.00 | 0.00 | 0.00 | 89 | 1014.8 |
| 20260902115256 | 22 | 325 | 3.2 | 3.2 | 0.00 | 0.00 | 0.00 | 89 | 1014.9 |
| 20260902114752 | 22 | 199 | 3.2 | 4.8 | 0.00 | 0.00 | 0.00 | 86 | 1014.8 |
| 20260902114248 | 23 | 296 | 0.0 | 1.6 | 0.00 | 0.00 | 0.00 | 87 | 1014.8 |
| 20260902113747 | 23 | 313 | 0.0 | 0.0 | 0.00 | 0.00 | 0.00 | 85 | 1014.8 |
| 20260902113243 | 23 | 285 | 0.0 | 0.0 | 0.00 | 0.00 | 0.00 | 83 | 1014.8 |
| 20260902112742 | 23 | 256 | 1.6 | 3.2 | 0.00 | 0.00 | 0.00 | 85 | 1014.8 |
| 20260902112239 | 23 | 336 | 1.6 | 3.2 | 0.00 | 0.00 | 0.00 | 86 | 1014.8 |
| 20260902111734 | 23 | 347 | 0.0 | 1.6 | 0.00 | 0.00 | 0.00 | 85 | 1014.6 |
| 20260902111231 | 23 | 290 | 0.0 | 1.6 | 0.00 | 0.00 | 0.00 | 83 | 1014.8 |
| 20260902110726 | 23 | 275 | 1.6 | 3.2 | 0.00 | 0.00 | 0.00 | 84 | 1014.6 |
| 20260902110222 | 23 | 312 | 0.0 | 1.6 | 0.00 | 0.00 | 0.00 | 83 | 1014.8 |
| 20260902105721 | 23 | 311 | 0.0 | 0.0 | 0.00 | 0.00 | 0.00 | 81 | 1014.8 |
| 20260902105211 | 23 | 316 | 0.0 | 1.6 | 0.00 | 0.00 | 0.00 | 82 | 1014.9 |
| 20260902104706 | 24 | 301 | 0.0 | 0.0 | 0.00 | 0.00 | 0.00 | 81 | 1014.8 |
| 20260902104202 | 24 | 276 | 3.2 | 3.2 | 0.00 | 0.00 | 0.00 | 79 | 1014.7 |
| 20260902103655 | 24 | 308 | 0.0 | 9.7 | 0.00 | 0.00 | 0.00 | 79 | 1015.0 |
| 20260902103151 | 24 | 35 | 8.0 | 9.7 | 0.00 | 0.00 | 0.00 | 81 | 1015.2 |
| 20260902102647 | 23 | 296 | 1.6 | 4.8 | 0.00 | 0.00 | 0.00 | 82 | 1014.7 |
| 20260902102144 | 23 | 14 | 9.7 | 14.5 | 0.00 | 0.00 | 0.00 | 83 | 1014.7 |
| 20260902101639 | 23 | 32 | 6.4 | 17.7 | 0.00 | 0.00 | 0.00 | 83 | 1014.6 |
| 20260902101138 | 23 | 341 | 8.0 | 11.3 | 0.00 | 0.00 | 0.00 | 84 | 1014.6 |
| 20260902100633 | 23 | 232 | 4.8 | 8.0 | 0.00 | 0.00 | 0.00 | 83 | 1013.6 |
| 20260902100128 | 23 | 201 | 4.8 | 8.0 | 0.00 | 0.00 | 0.00 | 83 | 1013.7 |
| 20260902095627 | 23 | 206 | 4.8 | 8.0 | 0.00 | 0.00 | 0.00 | 83 | 1013.6 |
| 20260902095127 | 23 | 222 | 4.8 | 8.0 | 0.00 | 0.00 | 0.00 | 84 | 1013.5 |
| 20260902094622 | 23 | 217 | 4.8 | 4.8 | 0.00 | 0.00 | 0.00 | 83 | 1013.5 |
| 20260902094118 | 23 | 200 | 4.8 | 8.0 | 0.00 | 0.00 | 0.00 | 83 | 1013.5 |
| 20260902093612 | 23 | 206 | 6.4 | 8.0 | 0.00 | 0.00 | 0.00 | 83 | 1013.4 |
| 20260902093106 | 23 | 207 | 4.8 | 8.0 | 0.00 | 0.00 | 0.00 | 83 | 1013.5 |
| 20260902092601 | 23 | 229 | 4.8 | 8.0 | 0.00 | 0.00 | 0.00 | 83 | 1013.4 |
| 20260902092056 | 23 | 218 | 4.8 | 8.0 | 0.00 | 0.00 | 0.00 | 82 | 1013.4 |
| 20260902091551 | 23 | 207 | 6.4 | 8.0 | 0.00 | 0.00 | 0.00 | 82 | 1013.5 |
| 20260902091047 | 24 | 190 | 4.8 | 4.8 | 0.00 | 0.00 | 0.00 | 82 | 1013.4 |
| 20260902090542 | 24 | 220 | 3.2 | 8.0 | 0.00 | 0.00 | 0.00 | 81 | 1013.3 |
| 20260902090041 | 24 | 218 | 4.8 | 8.0 | 0.00 | 0.00 | 0.00 | 81 | 1013.7 |
| 20260902085536 | 24 | 230 | 4.8 | 9.7 | 0.00 | 0.00 | 0.00 | 81 | 1013.4 |
| 20260902085031 | 24 | 203 | 4.8 | 11.3 | 0.00 | 0.00 | 0.00 | 81 | 1013.4 |
| 20260902084522 | 24 | 214 | 6.4 | 8.0 | 0.00 | 0.00 | 0.00 | 81 | 1013.4 |
| 20260902084017 | 24 | 197 | 6.4 | 8.0 | 0.00 | 0.00 | 0.00 | 81 | 1013.5 |
| 20260902083512 | 24 | 228 | 4.8 | 4.8 | 0.00 | 0.00 | 0.00 | 80 | 1013.5 |
| 20260902083007 | 24 | 201 | 4.8 | 8.0 | 0.00 | 0.00 | 0.00 | 80 | 1013.5 |
| 20260902082502 | 24 | 182 | 4.8 | 8.0 | 0.00 | 0.00 | 0.00 | 80 | 1013.3 |
| 20260902081958 | 25 | 221 | 3.2 | 4.8 | 0.00 | 0.00 | 0.00 | 80 | 1013.5 |
| 20260902081455 | 25 | 213 | 6.4 | 8.0 | 0.00 | 0.00 | 0.00 | 79 | 1013.3 |